User: anonymous   Login
Location: Caltech
(34.1382°N, 118.1253°W)
Time: 14:57:25
(UTC-07:00)
Language:

Saudisat 1A - Orbit

View from above orbital plane
View from above orbital plane
View from above satellite
View from above satellite

Ground track
Ground track

The orbit data is extracted from the following two-line orbital elements,

1 26546U 00057B   14296.58090778  .00002412  00000-0  25893-3 0  4085
2 26546 064.5559 120.8038 0006968 307.7678 052.3307 14.88371197762507
Epoch (UTC): 23 October 2014 13:56:30
Eccentricity: 0.0006968
inclination: 64.5559°
perigee height: 598 km
apogee height: 608 km
right ascension of ascending node: 120.8038°
argument of perigee: 307.7678°
revolutions per day: 14.88371197
mean anomaly at epoch: 52.3307°
orbit number at epoch: 76250

The dashed part of the orbit path shows where the satellite is in the earth's shadow,  

DLR